Year,Month,Day,Hour,Minute,Value (Times are PST for temperature in C)
2019,05,04,00,00,11.10
2019,05,04,00,01,11.10
2019,05,04,00,02,11.10
2019,05,04,00,03,11.10
2019,05,04,00,04,11.00
2019,05,04,00,05,11.00
2019,05,04,00,06,11.00
2019,05,04,00,07,11.00
2019,05,04,00,08,10.90
2019,05,04,00,09,10.90
2019,05,04,00,10,10.90
2019,05,04,00,11,10.90
2019,05,04,00,12,10.90
2019,05,04,00,13,10.90
2019,05,04,00,14,10.90
2019,05,04,00,15,10.90
2019,05,04,00,16,10.90
2019,05,04,00,17,10.90
2019,05,04,00,18,10.80
2019,05,04,00,19,10.80
2019,05,04,00,20,10.80
2019,05,04,00,21,10.80
2019,05,04,00,22,10.80
2019,05,04,00,23,10.80
2019,05,04,00,24,10.80
2019,05,04,00,25,10.80
2019,05,04,00,26,10.80
2019,05,04,00,27,10.70
2019,05,04,00,28,10.70
2019,05,04,00,29,10.70
2019,05,04,00,30,10.70
2019,05,04,00,31,10.70
2019,05,04,00,32,10.70
2019,05,04,00,33,10.70
2019,05,04,00,34,10.70
2019,05,04,00,35,10.70
2019,05,04,00,36,10.70
2019,05,04,00,37,10.70
2019,05,04,00,38,10.70
2019,05,04,00,39,10.70
2019,05,04,00,40,10.70
2019,05,04,00,41,10.70
2019,05,04,00,42,10.70
2019,05,04,00,43,10.70
2019,05,04,00,44,10.60
2019,05,04,00,45,10.60
2019,05,04,00,46,10.60
2019,05,04,00,47,10.60
2019,05,04,00,48,10.60
2019,05,04,00,49,10.60
2019,05,04,00,50,10.60
2019,05,04,00,51,10.50
2019,05,04,00,52,10.50
2019,05,04,00,53,10.50
2019,05,04,00,54,10.50
2019,05,04,00,55,10.50
2019,05,04,00,56,10.40
2019,05,04,00,57,10.40
2019,05,04,00,58,10.40
2019,05,04,00,59,10.40
2019,05,04,01,00,10.30
2019,05,04,01,01,10.30
2019,05,04,01,02,10.30
2019,05,04,01,03,10.30
2019,05,04,01,04,10.30
2019,05,04,01,05,10.20
2019,05,04,01,06,10.20
2019,05,04,01,07,10.20
2019,05,04,01,08,10.20
2019,05,04,01,09,10.10
2019,05,04,01,10,10.10
2019,05,04,01,11,10.10
2019,05,04,01,12,10.10
2019,05,04,01,13,10.10
2019,05,04,01,14,10.00
2019,05,04,01,15,10.00
2019,05,04,01,16,10.00
2019,05,04,01,17,9.90
2019,05,04,01,18,9.90
2019,05,04,01,19,9.90
2019,05,04,01,20,9.90
2019,05,04,01,21,9.80
2019,05,04,01,22,9.80
2019,05,04,01,23,9.80
2019,05,04,01,24,9.80
2019,05,04,01,25,9.70
2019,05,04,01,26,9.70
2019,05,04,01,27,9.70
2019,05,04,01,28,9.70
2019,05,04,01,29,9.60
2019,05,04,01,30,9.60
2019,05,04,01,31,9.60
2019,05,04,01,32,9.60
2019,05,04,01,33,9.60
2019,05,04,01,34,9.50
2019,05,04,01,35,9.50
2019,05,04,01,36,9.40
2019,05,04,01,37,9.40
2019,05,04,01,38,9.40
2019,05,04,01,39,9.40
2019,05,04,01,40,9.40
2019,05,04,01,41,9.30
2019,05,04,01,42,9.30
2019,05,04,01,43,9.30
2019,05,04,01,44,9.30
2019,05,04,01,45,9.30
2019,05,04,01,46,9.30
2019,05,04,01,47,9.30
2019,05,04,01,48,9.20
2019,05,04,01,49,9.20
2019,05,04,01,50,9.20
2019,05,04,01,51,9.20
2019,05,04,01,52,9.20
2019,05,04,01,53,9.10
2019,05,04,01,54,9.10
2019,05,04,01,55,9.10
2019,05,04,01,56,9.10
2019,05,04,01,57,9.10
2019,05,04,01,58,9.00
2019,05,04,01,59,9.00
2019,05,04,02,00,9.00
2019,05,04,02,01,9.00
2019,05,04,02,02,9.00
2019,05,04,02,03,9.00
2019,05,04,02,04,9.00
2019,05,04,02,05,9.00
2019,05,04,02,06,9.00
2019,05,04,02,07,8.90
2019,05,04,02,08,8.90
2019,05,04,02,09,8.90
2019,05,04,02,10,8.90
2019,05,04,02,11,8.90
2019,05,04,02,12,8.90
2019,05,04,02,13,8.90
2019,05,04,02,14,8.90
2019,05,04,02,15,8.90
2019,05,04,02,16,8.90
2019,05,04,02,17,8.90
2019,05,04,02,18,8.90
2019,05,04,02,19,8.90
2019,05,04,02,20,8.90
2019,05,04,02,21,8.90
2019,05,04,02,22,8.80
2019,05,04,02,23,8.80
2019,05,04,02,24,8.80
2019,05,04,02,25,8.80
2019,05,04,02,26,8.80
2019,05,04,02,27,8.80
2019,05,04,02,28,8.80
2019,05,04,02,29,8.70
2019,05,04,02,30,8.70
2019,05,04,02,31,8.70
2019,05,04,02,32,8.70
2019,05,04,02,33,8.70
2019,05,04,02,34,8.70
2019,05,04,02,35,8.70
2019,05,04,02,36,8.70
2019,05,04,02,37,8.70
2019,05,04,02,38,8.70
2019,05,04,02,39,8.70
2019,05,04,02,40,8.70
2019,05,04,02,41,8.70
2019,05,04,02,42,8.70
2019,05,04,02,43,8.60
2019,05,04,02,44,8.60
2019,05,04,02,45,8.60
2019,05,04,02,46,8.60
2019,05,04,02,47,8.50
2019,05,04,02,48,8.50
2019,05,04,02,49,8.50
2019,05,04,02,50,8.50
2019,05,04,02,51,8.40
2019,05,04,02,52,8.40
2019,05,04,02,53,8.40
2019,05,04,02,54,8.40
2019,05,04,02,55,8.40
2019,05,04,02,56,8.30
2019,05,04,02,57,8.30
2019,05,04,02,58,8.30
2019,05,04,02,59,8.30
2019,05,04,03,00,8.30
2019,05,04,03,01,8.30
2019,05,04,03,02,8.20
2019,05,04,03,03,8.30
2019,05,04,03,04,8.30
2019,05,04,03,05,8.30
2019,05,04,03,06,8.30
2019,05,04,03,07,8.30
2019,05,04,03,08,8.30
2019,05,04,03,09,8.30
2019,05,04,03,10,8.30
2019,05,04,03,11,8.30
2019,05,04,03,12,8.30
2019,05,04,03,13,8.30
2019,05,04,03,14,8.30
2019,05,04,03,15,8.30
2019,05,04,03,16,8.30
2019,05,04,03,17,8.20
2019,05,04,03,18,8.20
2019,05,04,03,19,8.20
2019,05,04,03,20,8.20
2019,05,04,03,21,8.20
2019,05,04,03,22,8.20
2019,05,04,03,23,8.20
2019,05,04,03,24,8.20
2019,05,04,03,25,8.10
2019,05,04,03,26,8.10
2019,05,04,03,27,8.10
2019,05,04,03,28,8.10
2019,05,04,03,29,8.10
2019,05,04,03,30,8.10
2019,05,04,03,31,8.10
2019,05,04,03,32,8.10
2019,05,04,03,33,8.10
2019,05,04,03,34,8.10
2019,05,04,03,35,8.10
2019,05,04,03,36,8.00
2019,05,04,03,37,8.00
2019,05,04,03,38,8.00
2019,05,04,03,39,8.00
2019,05,04,03,40,8.00
2019,05,04,03,41,8.00
2019,05,04,03,42,8.00
2019,05,04,03,43,8.00
2019,05,04,03,44,7.90
2019,05,04,03,45,7.90
2019,05,04,03,46,7.90
2019,05,04,03,47,7.90
2019,05,04,03,48,7.90
2019,05,04,03,49,8.00
2019,05,04,03,50,8.00
2019,05,04,03,51,8.00
2019,05,04,03,52,8.00
2019,05,04,03,53,8.00
2019,05,04,03,54,8.00
2019,05,04,03,55,8.00
2019,05,04,03,56,7.90
2019,05,04,03,57,8.00
2019,05,04,03,58,7.90
2019,05,04,03,59,7.90
2019,05,04,04,00,7.90
2019,05,04,04,01,7.90
2019,05,04,04,02,7.90
2019,05,04,04,03,7.90
2019,05,04,04,04,7.90
2019,05,04,04,05,7.90
2019,05,04,04,06,7.90
2019,05,04,04,07,7.90
2019,05,04,04,08,7.90
2019,05,04,04,09,7.90
2019,05,04,04,10,7.90
2019,05,04,04,11,7.90
2019,05,04,04,12,7.90
2019,05,04,04,13,7.90
2019,05,04,04,14,7.90
2019,05,04,04,15,7.80
2019,05,04,04,16,7.80
2019,05,04,04,17,7.80
2019,05,04,04,18,7.80
2019,05,04,04,19,7.80
2019,05,04,04,20,7.80
2019,05,04,04,21,7.80
2019,05,04,04,22,7.80
2019,05,04,04,23,7.80
2019,05,04,04,24,7.70
2019,05,04,04,25,7.70
2019,05,04,04,26,7.70
2019,05,04,04,27,7.70
2019,05,04,04,28,7.70
2019,05,04,04,29,7.70
2019,05,04,04,30,7.70
2019,05,04,04,31,7.60
2019,05,04,04,32,7.60
2019,05,04,04,33,7.60
2019,05,04,04,34,7.60
2019,05,04,04,35,7.60
2019,05,04,04,36,7.70
2019,05,04,04,37,7.70
2019,05,04,04,38,7.70
2019,05,04,04,39,7.70
2019,05,04,04,40,7.70
2019,05,04,04,41,7.70
2019,05,04,04,42,7.80
2019,05,04,04,43,7.80
2019,05,04,04,44,7.80
2019,05,04,04,45,7.80
2019,05,04,04,46,7.80
2019,05,04,04,47,7.80
2019,05,04,04,48,7.80
2019,05,04,04,49,7.80
2019,05,04,04,50,7.80
2019,05,04,04,51,7.70
2019,05,04,04,52,7.70
2019,05,04,04,53,7.70
2019,05,04,04,54,7.70
2019,05,04,04,55,7.70
2019,05,04,04,56,7.70
2019,05,04,04,57,7.70
2019,05,04,04,58,7.70
2019,05,04,04,59,7.70
2019,05,04,05,00,7.70
2019,05,04,05,01,7.70
2019,05,04,05,02,7.70
2019,05,04,05,03,7.70
2019,05,04,05,04,7.70
2019,05,04,05,05,7.70
2019,05,04,05,06,7.70
2019,05,04,05,07,7.70
2019,05,04,05,08,7.70
2019,05,04,05,09,7.70
2019,05,04,05,10,7.70
2019,05,04,05,11,7.70
2019,05,04,05,12,7.70
2019,05,04,05,13,7.70
2019,05,04,05,14,7.70
2019,05,04,05,15,7.70
2019,05,04,05,16,7.70
2019,05,04,05,17,7.70
2019,05,04,05,18,7.70
2019,05,04,05,19,7.70
2019,05,04,05,20,7.70
2019,05,04,05,21,7.70
2019,05,04,05,22,7.70
2019,05,04,05,23,7.70
2019,05,04,05,24,7.70
2019,05,04,05,25,7.70
2019,05,04,05,26,7.60
2019,05,04,05,27,7.60
2019,05,04,05,28,7.60
2019,05,04,05,29,7.60
2019,05,04,05,30,7.60
2019,05,04,05,31,7.60
2019,05,04,05,32,7.60
2019,05,04,05,33,7.60
2019,05,04,05,34,7.60
2019,05,04,05,35,7.60
2019,05,04,05,36,7.60
2019,05,04,05,37,7.60
2019,05,04,05,38,7.50
2019,05,04,05,39,7.50
2019,05,04,05,40,7.50
2019,05,04,05,41,7.50
2019,05,04,05,42,7.40
2019,05,04,05,43,7.40
2019,05,04,05,44,7.40
2019,05,04,05,45,7.40
2019,05,04,05,46,7.40
2019,05,04,05,47,7.40
2019,05,04,05,48,7.40
2019,05,04,05,49,7.30
2019,05,04,05,50,7.30
2019,05,04,05,51,7.30
2019,05,04,05,52,7.30
2019,05,04,05,53,7.30
2019,05,04,05,54,7.30
2019,05,04,05,55,7.40
2019,05,04,05,56,7.40
2019,05,04,05,57,7.40
2019,05,04,05,58,7.40
2019,05,04,05,59,7.40
2019,05,04,06,00,7.50
2019,05,04,06,01,7.50
2019,05,04,06,02,7.50
2019,05,04,06,03,7.50
2019,05,04,06,04,7.50
2019,05,04,06,05,7.50
2019,05,04,06,06,7.50
2019,05,04,06,07,7.60
2019,05,04,06,08,7.60
2019,05,04,06,09,7.60
2019,05,04,06,10,7.60
2019,05,04,06,11,7.60
2019,05,04,06,12,7.60
2019,05,04,06,13,7.60
2019,05,04,06,14,7.60
2019,05,04,06,15,7.60
2019,05,04,06,16,7.60
2019,05,04,06,17,7.60
2019,05,04,06,18,7.70
2019,05,04,06,19,7.70
2019,05,04,06,20,7.70
2019,05,04,06,21,7.70
2019,05,04,06,22,7.70
2019,05,04,06,23,7.70
2019,05,04,06,24,7.80
2019,05,04,06,25,7.80
2019,05,04,06,26,7.80
2019,05,04,06,27,7.80
2019,05,04,06,28,7.90
2019,05,04,06,29,7.90
2019,05,04,06,30,8.00
2019,05,04,06,31,8.00
2019,05,04,06,32,8.10
2019,05,04,06,33,8.10
2019,05,04,06,34,8.20
2019,05,04,06,35,8.20
2019,05,04,06,36,8.30
2019,05,04,06,37,8.30
2019,05,04,06,38,8.30
2019,05,04,06,39,8.40
2019,05,04,06,40,8.50
2019,05,04,06,41,8.60
2019,05,04,06,42,8.70
2019,05,04,06,43,8.70
2019,05,04,06,44,8.70
2019,05,04,06,45,8.70
2019,05,04,06,46,8.70
2019,05,04,06,47,8.70
2019,05,04,06,48,8.60
2019,05,04,06,49,8.60
2019,05,04,06,50,8.60
2019,05,04,06,51,8.60
2019,05,04,06,52,8.70
2019,05,04,06,53,8.70
2019,05,04,06,54,8.80
2019,05,04,06,55,8.80
2019,05,04,06,56,8.90
2019,05,04,06,57,8.90
2019,05,04,06,58,9.00
2019,05,04,06,59,9.00
2019,05,04,07,00,9.10
2019,05,04,07,01,9.20
2019,05,04,07,02,9.20
2019,05,04,07,03,9.30
2019,05,04,07,04,9.30
2019,05,04,07,05,9.40
2019,05,04,07,06,9.50
2019,05,04,07,07,9.50
2019,05,04,07,08,9.60
2019,05,04,07,09,9.70
2019,05,04,07,10,9.70
2019,05,04,07,11,9.80
2019,05,04,07,12,9.80
2019,05,04,07,13,9.90
2019,05,04,07,14,9.90
2019,05,04,07,15,10.00
2019,05,04,07,16,10.00
2019,05,04,07,17,10.00
2019,05,04,07,18,10.10
2019,05,04,07,19,10.10
2019,05,04,07,20,10.10
2019,05,04,07,21,10.10
2019,05,04,07,22,10.10
2019,05,04,07,23,10.10
2019,05,04,07,24,10.10
2019,05,04,07,25,10.10
2019,05,04,07,26,10.20
2019,05,04,07,27,10.20
2019,05,04,07,28,10.20
2019,05,04,07,29,10.30
2019,05,04,07,30,10.30
2019,05,04,07,31,10.30
2019,05,04,07,32,10.40
2019,05,04,07,33,10.40
2019,05,04,07,34,10.40
2019,05,04,07,35,10.50
2019,05,04,07,36,10.50
2019,05,04,07,37,10.60
2019,05,04,07,38,10.60
2019,05,04,07,39,10.60
2019,05,04,07,40,10.70
2019,05,04,07,41,10.70
2019,05,04,07,42,10.80
2019,05,04,07,43,10.80
2019,05,04,07,44,10.80
2019,05,04,07,45,10.90
2019,05,04,07,46,10.90
2019,05,04,07,47,10.90
2019,05,04,07,48,11.00
2019,05,04,07,49,11.00
2019,05,04,07,50,11.10
2019,05,04,07,51,11.10
2019,05,04,07,52,11.20
2019,05,04,07,53,11.20
2019,05,04,07,54,11.20
2019,05,04,07,55,11.30
2019,05,04,07,56,11.30
2019,05,04,07,57,11.40
2019,05,04,07,58,11.40
2019,05,04,07,59,11.40
2019,05,04,08,00,11.50
2019,05,04,08,01,11.50
2019,05,04,08,02,11.60
2019,05,04,08,03,11.60
2019,05,04,08,04,11.60
2019,05,04,08,05,11.70
2019,05,04,08,06,11.70
2019,05,04,08,07,11.80
2019,05,04,08,08,11.80
2019,05,04,08,09,11.80
2019,05,04,08,10,11.80
2019,05,04,08,11,11.80
2019,05,04,08,12,11.80
2019,05,04,08,13,11.90
2019,05,04,08,14,11.90
2019,05,04,08,15,11.90
2019,05,04,08,16,11.90
2019,05,04,08,17,11.90
2019,05,04,08,18,12.00
2019,05,04,08,19,12.00
2019,05,04,08,20,12.00
2019,05,04,08,21,12.00
2019,05,04,08,22,12.10
2019,05,04,08,23,12.10
2019,05,04,08,24,12.10
2019,05,04,08,25,12.10
2019,05,04,08,26,12.10
2019,05,04,08,27,12.10
2019,05,04,08,28,12.10
2019,05,04,08,29,12.10
2019,05,04,08,30,12.10
2019,05,04,08,31,12.10
2019,05,04,08,32,12.10
2019,05,04,08,33,12.10
2019,05,04,08,34,12.10
2019,05,04,08,35,12.10
2019,05,04,08,36,12.20
2019,05,04,08,37,12.20
2019,05,04,08,38,12.20
2019,05,04,08,39,12.20
2019,05,04,08,40,12.20
2019,05,04,08,41,12.20
2019,05,04,08,42,12.20
2019,05,04,08,43,12.30
2019,05,04,08,44,12.30
2019,05,04,08,45,12.30
2019,05,04,08,46,12.30
2019,05,04,08,47,12.40
2019,05,04,08,48,12.40
2019,05,04,08,49,12.40
2019,05,04,08,50,12.40
2019,05,04,08,51,12.40
2019,05,04,08,52,12.50
2019,05,04,08,53,12.50
2019,05,04,08,54,12.60
2019,05,04,08,55,12.60
2019,05,04,08,56,12.60
2019,05,04,08,57,12.60
2019,05,04,08,58,12.60
2019,05,04,08,59,12.60
2019,05,04,09,00,12.60
2019,05,04,09,01,12.60
2019,05,04,09,02,12.60
2019,05,04,09,03,12.70
2019,05,04,09,04,12.70
2019,05,04,09,05,12.70
2019,05,04,09,06,12.70
2019,05,04,09,07,12.70
2019,05,04,09,08,12.70
2019,05,04,09,09,12.70
2019,05,04,09,10,12.80
2019,05,04,09,11,12.80
2019,05,04,09,12,12.80
2019,05,04,09,13,12.80
2019,05,04,09,14,12.80
2019,05,04,09,15,12.80
2019,05,04,09,16,12.80
2019,05,04,09,17,12.90
2019,05,04,09,18,12.90
2019,05,04,09,19,12.90
2019,05,04,09,20,12.90
2019,05,04,09,21,12.90
2019,05,04,09,22,12.90
2019,05,04,09,23,12.80
2019,05,04,09,24,12.80
2019,05,04,09,25,12.80
2019,05,04,09,26,12.80
2019,05,04,09,27,12.80
2019,05,04,09,28,12.80
2019,05,04,09,29,12.80
2019,05,04,09,30,12.80
2019,05,04,09,31,12.80
2019,05,04,09,32,12.90
2019,05,04,09,33,12.90
2019,05,04,09,34,12.90
2019,05,04,09,35,13.00
2019,05,04,09,36,13.00
2019,05,04,09,37,13.00
2019,05,04,09,38,13.10
2019,05,04,09,39,13.10
2019,05,04,09,40,13.10
2019,05,04,09,41,13.20
2019,05,04,09,42,13.10
2019,05,04,09,43,13.10
2019,05,04,09,44,13.10
2019,05,04,09,45,13.10
2019,05,04,09,46,13.10
2019,05,04,09,47,13.10
2019,05,04,09,48,13.10
2019,05,04,09,49,13.10
2019,05,04,09,50,13.10
2019,05,04,09,51,13.10
2019,05,04,09,52,13.10
2019,05,04,09,53,13.10
2019,05,04,09,54,13.20
2019,05,04,09,55,13.20
2019,05,04,09,56,13.20
2019,05,04,09,57,13.20
2019,05,04,09,58,13.20
2019,05,04,09,59,13.20
2019,05,04,10,00,13.20
2019,05,04,10,01,13.10
2019,05,04,10,02,13.10
2019,05,04,10,03,13.10
2019,05,04,10,04,13.20
2019,05,04,10,05,13.20
2019,05,04,10,06,13.20
2019,05,04,10,07,13.20
2019,05,04,10,08,13.20
2019,05,04,10,09,13.20
2019,05,04,10,10,13.20
2019,05,04,10,11,13.20
2019,05,04,10,12,13.20
2019,05,04,10,13,13.20
2019,05,04,10,14,13.20
2019,05,04,10,15,13.20
2019,05,04,10,16,13.20
2019,05,04,10,17,13.20
2019,05,04,10,18,13.20
2019,05,04,10,19,13.20
2019,05,04,10,20,13.20
2019,05,04,10,21,13.20
2019,05,04,10,22,13.20
2019,05,04,10,23,13.20
2019,05,04,10,24,13.20
2019,05,04,10,25,13.20
2019,05,04,10,26,13.20
2019,05,04,10,27,13.30
2019,05,04,10,28,13.30
2019,05,04,10,29,13.30
2019,05,04,10,30,13.30
2019,05,04,10,31,13.30
2019,05,04,10,32,13.30
2019,05,04,10,33,13.30
2019,05,04,10,34,13.30
2019,05,04,10,35,13.30
2019,05,04,10,36,13.30
2019,05,04,10,37,13.30
2019,05,04,10,38,13.30
2019,05,04,10,39,13.30
2019,05,04,10,40,13.30
2019,05,04,10,41,13.30
2019,05,04,10,42,13.30
2019,05,04,10,43,13.40
2019,05,04,10,44,13.40
2019,05,04,10,45,13.40
2019,05,04,10,46,13.40
2019,05,04,10,47,13.40
2019,05,04,10,48,13.40
2019,05,04,10,49,13.40
2019,05,04,10,50,13.50
2019,05,04,10,51,13.50
2019,05,04,10,52,13.50
2019,05,04,10,53,13.50
2019,05,04,10,54,13.40
2019,05,04,10,55,13.50
2019,05,04,10,56,13.40
2019,05,04,10,57,13.40
2019,05,04,10,58,13.40
2019,05,04,10,59,13.40
2019,05,04,11,00,13.40
2019,05,04,11,01,13.40
2019,05,04,11,02,13.40
2019,05,04,11,03,13.40
2019,05,04,11,04,13.40
2019,05,04,11,05,13.40
2019,05,04,11,06,13.50
2019,05,04,11,07,13.40
2019,05,04,11,08,13.40
2019,05,04,11,09,13.40
2019,05,04,11,10,13.40
2019,05,04,11,11,13.50
2019,05,04,11,12,13.40
2019,05,04,11,13,13.40
2019,05,04,11,14,13.40
2019,05,04,11,15,13.30
2019,05,04,11,16,13.30
2019,05,04,11,17,13.20
2019,05,04,11,18,13.10
2019,05,04,11,19,13.00
2019,05,04,11,20,13.00
2019,05,04,11,21,12.90
2019,05,04,11,22,12.90
2019,05,04,11,23,12.90
2019,05,04,11,24,12.80
2019,05,04,11,25,12.80
2019,05,04,11,26,12.80
2019,05,04,11,27,12.80
2019,05,04,11,28,12.80
2019,05,04,11,29,12.80
2019,05,04,11,30,12.80
2019,05,04,11,31,12.80
2019,05,04,11,32,12.90
2019,05,04,11,33,12.90
2019,05,04,11,34,12.90
2019,05,04,11,35,13.00
2019,05,04,11,36,13.10
2019,05,04,11,37,13.10
2019,05,04,11,38,13.20
2019,05,04,11,39,13.20
2019,05,04,11,40,13.30
2019,05,04,11,41,13.30
2019,05,04,11,42,13.40
2019,05,04,11,43,13.40
2019,05,04,11,44,13.50
2019,05,04,11,45,13.50
2019,05,04,11,46,13.50
2019,05,04,11,47,13.50
2019,05,04,11,48,13.50
2019,05,04,11,49,13.50
2019,05,04,11,50,13.60
2019,05,04,11,51,13.60
2019,05,04,11,52,13.60
2019,05,04,11,53,13.60
2019,05,04,11,54,13.60
2019,05,04,11,55,13.60
2019,05,04,11,56,13.70
2019,05,04,11,57,13.70
2019,05,04,11,58,13.70
2019,05,04,11,59,13.60
2019,05,04,12,00,13.60
2019,05,04,12,01,13.60
2019,05,04,12,02,13.60
2019,05,04,12,03,13.60
2019,05,04,12,04,13.60
2019,05,04,12,05,13.60
2019,05,04,12,06,13.60
2019,05,04,12,07,13.60
2019,05,04,12,08,13.60
2019,05,04,12,09,13.60
2019,05,04,12,10,13.60
2019,05,04,12,11,13.50
2019,05,04,12,12,13.50
2019,05,04,12,13,13.40
2019,05,04,12,14,13.30
2019,05,04,12,15,13.30
2019,05,04,12,16,13.30
2019,05,04,12,17,13.20
2019,05,04,12,18,13.20
2019,05,04,12,19,13.20
2019,05,04,12,20,13.20
2019,05,04,12,21,13.20
2019,05,04,12,22,13.20
2019,05,04,12,23,13.20
2019,05,04,12,24,13.20
2019,05,04,12,25,13.20
2019,05,04,12,26,13.10
2019,05,04,12,27,13.20
2019,05,04,12,28,13.20
2019,05,04,12,29,13.20
2019,05,04,12,30,13.20
2019,05,04,12,31,13.20
2019,05,04,12,32,13.20
2019,05,04,12,33,13.20
2019,05,04,12,34,13.20
2019,05,04,12,35,13.10
2019,05,04,12,36,13.10
2019,05,04,12,37,13.10
2019,05,04,12,38,13.10
2019,05,04,12,39,13.10
2019,05,04,12,40,13.10
2019,05,04,12,41,13.10
2019,05,04,12,42,13.10
2019,05,04,12,43,13.20
2019,05,04,12,44,13.20
2019,05,04,12,45,13.20
2019,05,04,12,46,13.20
2019,05,04,12,47,13.20
2019,05,04,12,48,13.20
2019,05,04,12,49,13.20
2019,05,04,12,50,13.30
2019,05,04,12,51,13.30
2019,05,04,12,52,13.30
2019,05,04,12,53,13.30
2019,05,04,12,54,13.40
2019,05,04,12,55,13.40
2019,05,04,12,56,13.40
2019,05,04,12,57,13.40
2019,05,04,12,58,13.40
2019,05,04,12,59,13.50
2019,05,04,13,00,13.50
2019,05,04,13,01,13.50
2019,05,04,13,02,13.50
2019,05,04,13,03,13.60
2019,05,04,13,04,13.60
2019,05,04,13,05,13.70
2019,05,04,13,06,13.70
2019,05,04,13,07,13.70
2019,05,04,13,08,13.70
2019,05,04,13,09,13.80
2019,05,04,13,10,13.80
2019,05,04,13,11,13.80
2019,05,04,13,12,13.90
2019,05,04,13,13,13.90
2019,05,04,13,14,13.90
2019,05,04,13,15,14.00
2019,05,04,13,16,14.00
2019,05,04,13,17,14.00
2019,05,04,13,18,14.10
2019,05,04,13,19,14.10
2019,05,04,13,20,14.10
2019,05,04,13,21,14.10
2019,05,04,13,22,14.10
2019,05,04,13,23,14.20
2019,05,04,13,24,14.20
2019,05,04,13,25,14.20
2019,05,04,13,26,14.20
2019,05,04,13,27,14.20
2019,05,04,13,28,14.20
2019,05,04,13,29,14.20
2019,05,04,13,30,14.20
2019,05,04,13,31,14.20
2019,05,04,13,32,14.20
2019,05,04,13,33,14.20
2019,05,04,13,34,14.20
2019,05,04,13,35,14.30
2019,05,04,13,36,14.30
2019,05,04,13,37,14.30
2019,05,04,13,38,14.30
2019,05,04,13,39,14.40
2019,05,04,13,40,14.40
2019,05,04,13,41,14.40
2019,05,04,13,42,14.40
2019,05,04,13,43,14.40
2019,05,04,13,44,14.40
2019,05,04,13,45,14.40
2019,05,04,13,46,14.40
2019,05,04,13,47,14.40
2019,05,04,13,48,14.40
2019,05,04,13,49,14.40
2019,05,04,13,50,14.40
2019,05,04,13,51,14.40
2019,05,04,13,52,14.40
2019,05,04,13,53,14.40
2019,05,04,13,54,14.50
2019,05,04,13,55,14.50
2019,05,04,13,56,14.50
2019,05,04,13,57,14.60
2019,05,04,13,58,14.60
2019,05,04,13,59,14.70
2019,05,04,14,00,14.70
2019,05,04,14,01,14.70
2019,05,04,14,02,14.70
2019,05,04,14,03,14.50
2019,05,04,14,04,14.30
2019,05,04,14,05,14.10
2019,05,04,14,06,14.00
2019,05,04,14,07,13.80
2019,05,04,14,08,13.70
2019,05,04,14,09,13.70
2019,05,04,14,10,13.60
2019,05,04,14,11,13.60
2019,05,04,14,12,13.60
2019,05,04,14,13,13.60
2019,05,04,14,14,13.60
2019,05,04,14,15,13.50
2019,05,04,14,16,13.50
2019,05,04,14,17,13.60
2019,05,04,14,18,13.60
2019,05,04,14,19,13.60
2019,05,04,14,20,13.60
2019,05,04,14,21,13.70
2019,05,04,14,22,13.70
2019,05,04,14,23,13.80
2019,05,04,14,24,13.80
2019,05,04,14,25,13.80
2019,05,04,14,26,13.80
2019,05,04,14,27,13.80
2019,05,04,14,28,13.80
2019,05,04,14,29,13.80
2019,05,04,14,30,13.80
2019,05,04,14,31,13.80
2019,05,04,14,32,13.80
2019,05,04,14,33,13.80
2019,05,04,14,34,13.80
2019,05,04,14,35,13.90
2019,05,04,14,36,13.90
2019,05,04,14,37,13.90
2019,05,04,14,38,13.80
2019,05,04,14,39,13.80
2019,05,04,14,40,13.80
2019,05,04,14,41,13.80
2019,05,04,14,42,13.80
2019,05,04,14,43,13.80
2019,05,04,14,44,13.70
2019,05,04,14,45,13.60
2019,05,04,14,46,13.50
2019,05,04,14,47,13.40
2019,05,04,14,48,13.40
2019,05,04,14,49,13.40
2019,05,04,14,50,13.40
2019,05,04,14,51,13.40
2019,05,04,14,52,13.40
2019,05,04,14,53,13.30
2019,05,04,14,54,13.20
2019,05,04,14,55,13.10
2019,05,04,14,56,13.00
2019,05,04,14,57,13.00
2019,05,04,14,58,12.90
2019,05,04,14,59,12.90
2019,05,04,15,00,12.90
2019,05,04,15,01,12.80
2019,05,04,15,02,12.90
2019,05,04,15,03,12.90
2019,05,04,15,04,12.90
2019,05,04,15,05,12.90
2019,05,04,15,06,12.90
2019,05,04,15,07,12.90
2019,05,04,15,08,13.00
2019,05,04,15,09,13.00
2019,05,04,15,10,13.00
2019,05,04,15,11,13.00
2019,05,04,15,12,13.10
2019,05,04,15,13,13.10
2019,05,04,15,14,13.10
2019,05,04,15,15,13.10
2019,05,04,15,16,13.00
2019,05,04,15,17,13.00
2019,05,04,15,18,12.90
2019,05,04,15,19,12.90
2019,05,04,15,20,12.90
2019,05,04,15,21,12.80
2019,05,04,15,22,12.80
2019,05,04,15,23,12.80
2019,05,04,15,24,12.80
2019,05,04,15,25,12.80
2019,05,04,15,26,12.90
2019,05,04,15,27,12.90
2019,05,04,15,28,13.00
2019,05,04,15,29,13.00
2019,05,04,15,30,13.10
2019,05,04,15,31,13.10
2019,05,04,15,32,13.10
2019,05,04,15,33,13.10
2019,05,04,15,34,13.10
2019,05,04,15,35,13.20
2019,05,04,15,36,13.20
2019,05,04,15,37,13.30
2019,05,04,15,38,13.30
2019,05,04,15,39,13.40
2019,05,04,15,40,13.40
2019,05,04,15,41,13.50
2019,05,04,15,42,13.40
2019,05,04,15,43,13.40
2019,05,04,15,44,13.50
2019,05,04,15,45,13.50
2019,05,04,15,46,13.50
2019,05,04,15,47,13.60
2019,05,04,15,48,13.60
2019,05,04,15,49,13.50
2019,05,04,15,50,13.50
2019,05,04,15,51,13.40
2019,05,04,15,52,13.40
2019,05,04,15,53,13.50
2019,05,04,15,54,13.50
2019,05,04,15,55,13.50
2019,05,04,15,56,13.50
2019,05,04,15,57,13.50
2019,05,04,15,58,13.50
2019,05,04,15,59,13.50
2019,05,04,16,00,13.50
2019,05,04,16,01,13.50
2019,05,04,16,02,13.60
2019,05,04,16,03,13.60
2019,05,04,16,04,13.60
2019,05,04,16,05,13.60
2019,05,04,16,06,13.60
2019,05,04,16,07,13.70
2019,05,04,16,08,13.70
2019,05,04,16,09,13.70
2019,05,04,16,10,13.70
2019,05,04,16,11,13.70
2019,05,04,16,12,13.70
2019,05,04,16,13,13.70
2019,05,04,16,14,13.70
2019,05,04,16,15,13.70
2019,05,04,16,16,13.70
2019,05,04,16,17,13.70
2019,05,04,16,18,13.70
2019,05,04,16,19,13.70
2019,05,04,16,20,13.70
2019,05,04,16,21,13.70
2019,05,04,16,22,13.70
2019,05,04,16,23,13.70
2019,05,04,16,24,13.70
2019,05,04,16,25,13.70
2019,05,04,16,26,13.70
2019,05,04,16,27,13.80
2019,05,04,16,28,13.80
2019,05,04,16,29,13.90
2019,05,04,16,30,13.90
2019,05,04,16,31,13.90
2019,05,04,16,32,13.80
2019,05,04,16,33,13.80
2019,05,04,16,34,13.80
2019,05,04,16,35,13.80
2019,05,04,16,36,13.80
2019,05,04,16,37,13.80
2019,05,04,16,38,13.90
2019,05,04,16,39,13.90
2019,05,04,16,40,13.90
2019,05,04,16,41,13.90
2019,05,04,16,42,14.00
2019,05,04,16,43,14.10
2019,05,04,16,44,14.20
2019,05,04,16,45,14.20
2019,05,04,16,46,14.30
2019,05,04,16,47,14.30
2019,05,04,16,48,14.30
2019,05,04,16,49,14.40
2019,05,04,16,50,14.40
2019,05,04,16,51,14.50
2019,05,04,16,52,14.60
2019,05,04,16,53,14.60
2019,05,04,16,54,14.70
2019,05,04,16,55,14.70
2019,05,04,16,56,14.70
2019,05,04,16,57,14.80
2019,05,04,16,58,14.80
2019,05,04,16,59,14.80
2019,05,04,17,00,14.90
2019,05,04,17,01,14.90
2019,05,04,17,02,14.90
2019,05,04,17,03,14.90
2019,05,04,17,04,14.90
2019,05,04,17,05,14.90
2019,05,04,17,06,14.90
2019,05,04,17,07,15.00
2019,05,04,17,08,15.00
2019,05,04,17,09,15.00
2019,05,04,17,10,15.00
2019,05,04,17,11,15.00
2019,05,04,17,12,14.90
2019,05,04,17,13,14.90
2019,05,04,17,14,14.80
2019,05,04,17,15,14.70
2019,05,04,17,16,14.70
2019,05,04,17,17,14.60
2019,05,04,17,18,14.60
2019,05,04,17,19,14.60
2019,05,04,17,20,14.60
2019,05,04,17,21,14.60
2019,05,04,17,22,14.70
2019,05,04,17,23,14.70
2019,05,04,17,24,14.80
2019,05,04,17,25,14.80
2019,05,04,17,26,14.80
2019,05,04,17,27,14.80
2019,05,04,17,28,14.80
2019,05,04,17,29,14.90
2019,05,04,17,30,14.90
2019,05,04,17,31,14.90
2019,05,04,17,32,14.90
2019,05,04,17,33,14.90
2019,05,04,17,34,14.90
2019,05,04,17,35,15.00